Home > Weather > Yangon > Past weeks

Flag for Myanmar Weather for the Past 2 Weeks in Yangon, Myanmar

Now
95 °F

Scattered clouds.


Feels Like: 107 °F
Forecast: 80 / 101 °F
Wind: 12 mph from West

Location: Rangoon Airport

Current Time: May 1, 2016 at 11:16:07 AM

Latest Report: May 1, 2016 at 10:00 AM


Visibility: 5 mi

Pressure: 29.83 "Hg

Humidity: 53%

Dew Point: 75 °F

Location of YangonLocation

Historic Weather in Yangon — Graph

°F

Yangon Temperature Yesterday

Maximum temperature yesterday: 102 °F (at 2:00 PM)
Minimum temperature yesterday: 82 °F (at 6:00 AM)
Average temperature yesterday: 94 °F

High & Low Weather Summary for the Past Weeks

 TemperatureHumidityPressure
High106 °F (Apr 20, 2:30 PM)94% (Apr 19, 5:00 AM)29.92 "Hg (Apr 19, 5:00 AM)
Low77 °F (Apr 17, 5:00 AM)29% (Apr 26, 3:30 PM)29.65 "Hg (Apr 27, 4:00 PM)
Average91 °F61%29.78 "Hg
* Reported Apr 16 8:30 AM — May 1 9:00 AM, Yangon, Weather by CustomWeather, © 2016

Note: Actual official high and low records may vary slightly from our data, if they occured in-between our weather recording intervals... More about our weather records

Advertising

Yangon Weather History for the Previous 24 Hours

Scroll right to see more
 ConditionsComfort  
Time TempWeatherWind HumidityBarometerVisibility
9:00 AM
Sun, May 1
91 °FScattered clouds.6 mph59%29.83 "Hg5 mi
8:30 AM88 °FPassing clouds.12 mph70%29.83 "Hg5 mi
8:00 AM86 °FPassing clouds.12 mph75%29.83 "Hg5 mi
7:30 AM84 °FRain. Cloudy.12 mph84%29.83 "Hg4 mi
7:00 AM84 °FRain. Cloudy.6 mph84%29.80 "Hg4 mi
6:30 AM82 °FRain. Cloudy.9 mph89%29.80 "Hg4 mi
6:00 AM82 °FRain. Overcast.5 mph89%29.80 "Hg4 mi
5:30 AM82 °FRain. Overcast.5 mph89%29.77 "Hg4 mi
5:00 AM84 °FRain. Overcast.5 mph84%29.77 "Hg4 mi
11:30 PM
Sat, Apr 30
86 °FRain. Overcast.12 mph75%29.83 "Hg4 mi
11:00 PM86 °FRain. Overcast.9 mph75%29.83 "Hg4 mi
10:30 PM88 °FRain. Overcast.12 mph70%29.83 "Hg4 mi
10:00 PM90 °FPassing clouds.12 mph67%29.83 "Hg4 mi
9:30 PM90 °FPassing clouds.8 mph67%29.83 "Hg4 mi
9:00 PM90 °FPassing clouds.8 mph67%29.80 "Hg4 mi
8:30 PM90 °FRain. Overcast.12 mph67%29.80 "Hg4 mi
8:00 PM91 °FRain. Overcast.12 mph71%29.77 "Hg4 mi
7:30 PM91 °FRain. Overcast.12 mph71%29.74 "Hg4 mi
6:30 PM95 °FRain. Cloudy.6 mph53%29.71 "Hg4 mi
6:00 PM97 °FRain. Cloudy.12 mph53%29.68 "Hg4 mi
5:30 PM99 °FPassing clouds.12 mph44%29.68 "Hg5 mi
5:00 PM99 °FPassing clouds.12 mph44%29.68 "Hg5 mi
4:30 PM100 °FPassing clouds.12 mph40%29.68 "Hg6 mi
4:00 PM102 °FPassing clouds.12 mph35%29.68 "Hg6 mi
3:30 PM102 °FPassing clouds.12 mph35%29.71 "Hg6 mi
3:00 PM100 °FPassing clouds.12 mph45%29.71 "Hg6 mi
2:30 PM100 °FPassing clouds.12 mph45%29.71 "Hg6 mi
2:00 PM102 °FScattered clouds.9 mph35%29.74 "Hg6 mi
1:30 PM100 °FScattered clouds.9 mph45%29.77 "Hg6 mi
1:00 PM100 °FScattered clouds.9 mph45%29.77 "Hg6 mi
12:30 PM99 °FScattered clouds.9 mph44%29.80 "Hg6 mi
11:30 AM95 °FScattered clouds.8 mph53%29.83 "Hg5 mi
11:00 AM95 °FScattered clouds.12 mph53%29.83 "Hg5 mi
Weather by CustomWeather, © 2016

See weather overviewHow to use our weather pages